Date,TemperatureHighF,TemperatureAvgF,TemperatureLowF,DewpointHighF,DewpointAvgF,DewpointLowF,HumidityHigh,HumidityAvg,HumidityLow,PressureMaxIn,PressureMinIn,WindSpeedMaxMPH,WindSpeedAvgMPH,GustSpeedMaxMPH,PrecipitationSumIn
2013-1-1,26.1,21.9,14.5,22.5,16.8,8.6,89,81,72,30.25,30.10,11,-10,13,0.00
2013-1-2,24.4,16.6,7.7,10.9,8.1,4.1,87,70,46,30.31,30.22,12,-15,13,0.00
2013-1-3,32.7,25.0,17.2,27.5,19.2,9.9,84,78,72,30.37,30.22,14,-11,18,0.00
2013-1-4,33.6,24.3,13.5,26.4,18.5,9.3,85,78,71,30.39,30.31,20,-13,20,0.00
2013-1-5,36.3,30.3,20.7,31.5,25.6,18.1,91,83,70,30.34,30.07,18,-7,21,0.01
2013-1-6,36.7,28.4,19.8,31.5,23.1,17.2,91,80,75,30.40,30.05,22,-26,26,0.00
2013-1-7,37.4,27.7,18.7,27.9,22.8,16.0,92,82,65,30.44,30.20,22,-6,23,0.00
2013-1-8,43.7,36.1,28.6,33.4,28.2,24.4,84,73,58,30.25,30.14,18,-19,19,0.00
2013-1-9,52.5,43.1,30.9,37.2,33.4,25.5,87,69,45,30.52,30.14,19,-10,22,0.00
2013-1-10,49.5,38.7,28.9,48.2,33.5,23.7,96,82,62,30.51,29.90,14,-19,14,0.50
2013-1-11,58.5,55.4,49.5,56.1,50.8,48.0,96,85,74,29.90,29.75,22,8,26,0.20
2013-1-12,61.0,50.8,34.2,53.1,45.9,32.0,93,84,74,29.95,29.78,22,3,27,0.91
2013-1-13,34.5,28.4,17.2,32.2,25.7,11.8,94,89,79,30.32,29.78,25,-55,25,0.09
2013-1-14,19.9,17.4,15.6,16.7,12.8,10.6,89,82,79,30.50,30.32,12,-36,13,0.00
2013-1-15,29.7,23.9,17.1,23.0,19.0,13.8,89,82,71,30.46,30.14,11,-25,11,0.00
2013-1-16,38.3,30.6,20.7,28.2,23.4,18.5,93,76,53,30.14,29.98,18,-11,21,0.01
2013-1-17,36.0,31.4,22.8,29.5,23.9,17.1,88,74,55,30.46,30.12,21,-10,23,0.01
2013-1-18,39.7,30.5,21.6,28.8,22.8,17.6,87,74,55,30.49,30.12,29,-16,36,0.01
2013-1-19,53.2,43.5,37.6,38.5,33.6,29.7,81,68,54,30.12,29.86,29,-12,34,0.00
2013-1-20,41.5,24.4,19.6,33.6,12.9,9.1,74,61,51,30.33,29.99,26,-13,35,0.00
2013-1-21,20.3,14.2,7.3,13.8,3.7,-4.2,80,63,43,30.37,30.22,25,-20,27,0.00
2013-1-22,18.0,11.3,4.8,1.2,-1.1,-2.6,73,58,42,30.48,30.36,16,-52,18,0.00
2013-1-23,27.5,19.7,12.0,15.1,8.3,0.7,72,61,53,30.41,30.14,22,-21,23,0.00
2013-1-24,25.5,18.9,10.2,11.8,5.6,1.4,74,57,41,30.66,30.31,21,-20,23,0.00
2013-1-25,32.9,25.4,19.8,23.5,16.8,5.0,88,71,46,30.39,30.06,16,-33,16,0.01
2013-1-26,34.0,24.3,16.9,18.3,15.0,11.1,78,68,48,30.43,30.19,15,-21,16,0.02
2013-1-27,43.3,31.2,22.3,41.5,26.1,16.7,95,81,67,30.41,30.00,22,-10,22,0.13
2013-1-28,57.0,51.5,43.5,56.1,49.7,41.5,97,94,90,30.02,29.89,26,4,27,0.05
2013-1-29,62.4,59.3,53.2,58.6,56.5,51.6,97,90,84,29.89,29.33,29,10,30,1.18
2013-1-30,53.6,41.6,23.9,52.0,38.5,16.9,96,89,74,29.73,29.27,29,-7,31,0.35
2013-1-31,26.1,19.9,8.8,21.7,13.2,0.1,91,75,65,30.26,29.73,31,-40,31,0.00
2013-2-1,21.2,13.9,5.4,12.9,5.0,-1.5,77,67,56,30.48,30.26,25,-88,26,0.00
2013-2-2,29.5,22.0,14.0,24.4,17.6,8.6,91,83,70,30.26,30.04,22,-17,24,0.01
2013-2-3,27.3,21.3,13.3,21.2,15.8,8.8,93,80,59,30.14,30.01,25,-10,26,0.00
2013-2-4,43.3,30.4,23.4,33.1,24.0,17.8,84,77,64,30.09,29.81,16,-46,16,0.00
2013-2-5,39.0,31.5,24.6,33.8,27.2,22.1,92,84,78,30.12,29.84,20,-19,21,0.00
2013-2-6,39.9,33.4,30.6,29.8,27.3,25.5,84,78,66,30.26,30.12,13,-37,14,0.00
2013-2-7,57.2,39.7,30.2,44.6,33.7,26.6,92,80,52,30.16,29.82,23,-20,23,0.13
2013-2-8,35.1,32.5,30.4,32.7,28.8,27.0,91,86,82,30.40,29.93,24,-65,26,0.00
2013-2-9,44.6,34.8,29.3,29.8,26.9,23.9,88,73,54,30.41,30.11,12,-1,12,0.00
2013-2-10,52.9,44.6,35.2,50.0,40.2,26.4,94,85,63,30.13,29.63,33,-6,33,0.40
2013-2-11,51.4,38.3,30.7,47.5,29.7,25.0,86,71,59,30.10,29.65,25,-88,28,0.00
2013-2-12,31.6,28.3,25.5,27.0,24.9,23.0,91,87,79,30.16,29.95,8,-47,12,0.00
2013-2-13,49.5,37.0,26.8,34.5,29.8,24.4,94,77,48,29.96,29.77,16,-15,19,0.00
2013-2-14,43.9,37.9,34.5,36.0,31.7,28.8,88,79,64,30.02,29.78,21,-34,23,0.00
2013-2-15,35.1,31.8,25.2,30.7,23.5,16.0,89,72,48,30.21,30.01,21,-8,22,0.00
2013-2-16,25.5,22.3,17.8,18.0,12.6,7.5,78,66,53,30.21,30.16,20,-18,21,0.00
2013-2-17,35.6,24.2,11.1,20.1,11.5,4.5,83,59,35,30.28,30.08,10,-42,14,0.00
2013-2-18,54.0,42.9,31.5,45.7,34.2,18.5,92,72,54,30.08,29.51,33,3,38,0.41
2013-2-19,33.3,23.9,18.7,30.4,16.2,9.3,89,72,64,30.23,29.69,30,-11,31,0.00
2013-2-20,27.3,19.8,10.8,18.0,11.4,3.6,82,70,55,30.40,30.23,20,-4,25,0.00
2013-2-21,30.6,25.7,17.1,28.0,21.0,12.9,93,82,72,30.39,29.91,20,-5,27,0.00
2013-2-22,36.3,32.8,28.6,33.4,30.0,23.5,96,90,78,30.02,29.84,20,4,22,0.24
2013-2-23,30.7,27.4,22.8,23.7,21.7,19.4,90,79,72,30.03,29.98,16,-7,16,0.01
2013-2-24,41.2,29.6,17.8,27.3,23.0,15.3,92,78,55,30.17,30.02,9,-10,9,0.02
2013-2-25,45.9,35.8,26.6,32.0,28.2,23.5,89,74,54,30.17,29.83,16,2,20,0.00
2013-2-26,36.7,35.1,33.3,35.1,32.4,28.6,96,90,74,29.84,29.38,24,2,27,1.30
2013-2-27,34.3,33.3,32.7,33.3,31.6,30.2,96,94,90,29.74,29.52,14,-19,14,0.05
2013-2-28,38.5,34.6,32.2,33.6,31.4,27.7,93,88,82,30.05,29.73,20,-3,23,0.02
2013-3-1,33.1,30.9,28.6,30.6,27.6,24.6,94,87,82,30.15,30.02,18,3,20,0.01
2013-3-2,31.3,28.4,23.2,27.3,23.8,17.2,90,83,73,30.19,30.12,20,0,20,0.01
2013-3-3,36.3,26.9,19.0,20.3,17.4,11.1,89,69,36,30.19,30.10,14,-30,15,0.00
2013-3-4,37.8,31.6,22.3,30.4,24.8,19.2,92,76,57,30.14,29.93,14,-14,15,0.00
2013-3-5,37.0,33.7,29.5,33.3,30.7,28.2,95,89,77,29.93,29.73,27,2,30,0.12
2013-3-6,31.8,29.7,28.6,29.3,27.6,26.4,95,92,89,30.33,29.91,24,-16,26,0.03
2013-3-7,36.3,31.4,25.9,30.2,27.0,23.2,91,84,74,30.43,30.33,10,-5,11,0.10
2013-3-8,44.4,34.4,24.4,31.1,27.4,22.3,93,77,55,30.51,30.32,11,-2,11,0.00
2013-3-9,54.7,44.4,34.0,41.2,33.1,27.9,80,65,45,30.33,29.86,20,4,21,0.04
2013-3-10,63.9,57.4,53.2,51.6,44.0,35.8,92,62,48,29.87,29.65,26,9,30,0.05
2013-3-11,54.1,41.9,34.9,50.9,38.2,29.7,94,87,74,29.89,29.60,22,3,23,0.06
2013-3-12,43.0,35.8,29.7,33.4,27.6,21.7,91,72,53,30.09,29.89,25,6,28,0.03
2013-3-13,34.9,29.2,25.3,22.1,20.0,17.8,80,68,52,30.38,30.09,24,-6,28,0.00
2013-3-14,39.9,30.6,22.8,31.3,25.3,19.6,94,82,52,30.38,30.14,14,-16,18,0.01
2013-3-15,53.2,41.1,28.9,43.5,35.9,27.0,94,82,65,30.14,29.68,10,-2,12,0.04
2013-3-16,46.2,38.4,32.7,40.5,34.2,27.3,96,85,74,30.10,29.61,20,-8,25,0.00
2013-3-17,41.4,35.0,31.5,30.6,27.3,24.8,85,74,60,30.17,29.92,20,3,20,0.00
2013-3-18,44.2,36.2,27.9,37.8,32.6,19.8,95,87,70,29.92,29.61,23,2,25,0.11
2013-3-19,42.6,31.9,23.9,20.7,17.5,12.7,75,57,34,30.15,29.91,28,6,30,0.00
2013-3-20,31.6,26.6,21.6,20.8,12.8,5.7,75,57,36,30.16,30.07,28,5,28,0.00
2013-3-21,36.5,26.0,16.2,17.4,12.7,9.3,85,59,36,30.11,30.03,20,4,21,0.00
2013-3-22,45.9,33.1,17.8,23.2,17.7,14.7,91,57,30,30.10,30.01,11,1,13,0.00
2013-3-23,48.6,39.6,33.1,27.0,23.4,19.9,71,53,37,30.10,29.93,13,-3,16,0.00
2013-3-24,35.4,32.2,30.0,30.7,28.9,25.5,96,88,70,29.94,29.52,24,8,25,0.05
2013-3-25,35.8,31.6,28.8,31.8,29.5,27.5,96,92,83,30.09,29.62,27,-21,29,0.22
2013-3-26,41.2,34.9,30.9,28.9,27.0,22.8,84,73,52,30.30,30.09,16,-5,21,0.15
2013-3-27,42.8,37.0,30.9,27.7,25.1,19.4,84,63,41,30.37,30.29,15,-13,15,0.00
2013-3-28,50.2,38.6,26.1,31.3,27.4,22.6,89,66,42,30.40,30.31,10,-6,10,0.00
2013-3-29,55.9,44.5,33.1,35.8,32.4,28.8,87,64,41,30.33,30.22,9,1,10,0.00
2013-3-30,58.6,46.9,30.4,40.5,35.2,28.0,94,66,40,30.23,29.88,16,3,19,0.00
2013-3-31,62.1,51.7,41.5,44.8,41.4,31.3,92,69,43,29.90,29.75,24,5,28,0.02
2013-4-1,45.0,39.0,33.6,31.8,22.2,15.3,69,52,31,30.19,29.90,22,1,24,0.00
2013-4-2,43.5,33.1,26.6,20.8,18.3,12.9,74,56,29,30.33,30.19,19,-39,20,0.00
2013-4-24,49.8,43.8,37.4,39.0,34.2,29.7,93,70,47,30.23,30.02,20,-27,21,0.08
2013-4-25,54.9,46.6,38.8,36.3,31.4,23.5,83,58,34,30.35,30.17,29,6,32,0.00
2013-4-26,65.7,51.9,35.1,44.4,38.8,32.5,92,64,41,30.42,30.29,18,0,18,0.00
2013-4-27,64.2,54.6,45.0,52.7,46.0,39.2,95,75,42,30.31,29.94,13,2,15,0.31
2013-4-28,60.3,56.7,54.0,55.8,54.2,52.3,96,91,83,29.95,29.83,11,2,12,0.20
2013-4-29,73.2,62.3,51.3,55.8,53.0,49.3,94,74,52,29.97,29.83,19,4,19,0.00
2013-4-30,83.7,70.8,59.0,61.3,56.9,51.8,78,63,44,29.96,29.86,19,6,21,0.00
2013-5-1,84.0,72.9,57.6,58.6,55.1,50.0,86,57,32,30.10,29.96,15,3,18,0.00
2013-5-2,83.1,66.8,47.8,61.9,55.5,44.2,90,69,37,30.11,29.98,14,3,16,0.38
2013-5-3,75.6,61.6,47.1,61.3,53.5,43.5,93,76,52,30.04,29.83,21,0,29,0.10
2013-5-4,67.8,62.5,55.8,58.5,54.3,48.9,92,75,54,30.00,29.86,12,3,15,0.06
2013-5-5,67.5,59.7,54.0,56.1,52.8,49.8,93,78,61,30.00,29.90,14,2,18,0.06
2013-5-6,70.3,63.0,55.8,55.4,52.4,48.7,82,69,55,29.97,29.89,14,3,14,0.00
2013-5-7,75.6,65.0,57.4,55.0,52.4,48.4,83,65,40,29.99,29.93,11,-30,11,0.00
2013-5-8,81.5,69.5,54.1,58.5,54.4,50.5,88,61,37,30.01,29.92,10,1,10,0.00
2013-5-9,74.7,64.6,58.6,63.0,58.7,54.1,94,82,57,30.00,29.82,16,2,25,1.44
2013-5-10,68.4,59.0,46.6,60.6,54.7,42.4,93,86,74,29.96,29.79,18,5,18,0.00
2013-5-11,66.0,53.1,46.0,54.3,40.3,27.9,91,66,28,30.06,29.88,30,3,30,0.00
2013-5-12,58.5,49.5,39.7,32.9,28.7,23.2,75,47,27,30.14,30.06,22,-8,23,0.00
2013-5-13,67.8,53.1,36.9,40.5,32.5,23.4,88,51,21,30.20,30.07,18,-17,18,0.00
2013-5-14,87.1,71.4,54.3,62.6,52.4,38.3,68,52,39,30.08,29.74,26,-7,26,0.00
2013-5-15,89.8,79.3,70.3,63.9,58.0,52.5,68,49,36,29.83,29.74,19,-2,23,0.00
2013-5-16,86.0,75.4,66.2,64.4,58.4,48.2,84,58,29,29.92,29.78,16,2,16,0.00
2013-5-17,83.3,72.1,61.5,65.7,61.5,57.7,95,71,47,29.99,29.91,15,3,18,0.00
2013-5-18,80.4,70.8,61.3,64.6,62.1,59.4,94,76,56,30.02,29.90,13,1,16,0.00
2013-5-19,89.1,76.3,62.1,70.9,65.5,60.1,95,72,45,29.94,29.76,16,3,18,0.00
2013-5-20,87.4,79.1,73.0,71.2,66.5,57.9,85,67,45,29.85,29.72,25,8,28,0.00
2013-5-21,84.7,73.7,63.1,68.9,63.8,60.1,91,73,47,29.80,29.67,28,7,30,0.20
2013-5-22,77.5,70.0,64.2,65.5,61.1,55.2,88,74,47,29.78,29.63,22,5,22,0.40
2013-5-23,65.5,56.5,44.1,58.6,49.9,35.6,90,79,70,30.23,29.77,23,6,26,0.03
2013-5-24,67.6,53.6,39.7,41.4,37.3,32.5,86,58,29,30.40,30.22,16,5,16,0.00
2013-5-25,64.6,54.2,44.6,52.3,42.0,33.3,92,66,32,30.39,30.20,9,1,10,0.11
2013-5-26,67.8,58.8,51.1,55.9,50.4,44.2,91,74,59,30.28,30.07,13,3,16,0.04
2013-5-27,80.4,65.3,57.9,69.3,61.0,55.6,95,87,68,30.08,29.80,22,4,32,0.30
2013-5-28,83.5,74.1,64.2,69.8,65.4,61.5,94,75,63,29.90,29.79,31,7,31,0.00
2013-5-29,86.5,78.6,71.1,68.2,63.9,58.3,78,62,42,29.95,29.86,23,7,27,0.00
2013-5-30,86.0,78.2,69.1,70.0,66.3,62.8,85,67,52,29.95,29.84,30,8,31,0.12
2013-5-31,79.2,72.9,65.5,70.3,66.5,61.9,90,81,71,29.92,29.75,26,6,26,0.71
2013-6-1,75.6,69.4,63.9,65.5,63.1,59.2,90,81,69,29.83,29.69,26,6,30,0.82
2013-6-2,66.7,62.3,54.1,61.0,57.1,48.0,87,83,77,30.02,29.77,16,4,19,0.01
2013-6-3,70.3,59.5,49.3,49.6,46.9,44.1,83,65,41,30.10,30.00,12,3,12,0.00
2013-6-4,76.6,65.8,51.6,53.4,49.8,46.2,87,59,37,30.12,30.03,14,2,14,0.00
2013-6-5,81.9,70.5,57.6,58.5,54.7,52.0,82,59,39,30.04,29.84,9,2,10,0.00
2013-6-6,81.0,70.7,61.5,58.3,54.6,49.6,72,57,43,29.84,29.75,19,3,19,0.00
2013-6-7,73.2,64.4,58.3,62.8,57.1,50.7,86,77,62,29.89,29.80,10,2,12,0.06
2013-6-8,80.8,67.6,51.4,58.3,52.1,45.3,82,60,39,29.97,29.88,9,1,9,0.00
2013-6-9,82.8,73.5,66.0,64.9,60.4,54.7,85,65,40,29.97,29.77,16,4,19,0.00
2013-6-10,81.5,73.2,66.0,65.7,62.1,58.6,89,70,48,29.85,29.72,12,3,14,0.01
2013-6-11,88.0,76.3,63.1,69.4,63.5,58.5,85,66,41,29.94,29.81,18,3,19,0.00
2013-6-12,93.6,83.5,72.1,73.6,70.8,67.3,86,67,48,29.88,29.58,23,5,24,0.00
2013-6-13,85.6,72.7,62.8,71.6,59.8,49.8,88,66,37,29.99,29.58,24,7,27,0.02
2013-6-14,83.1,69.7,55.9,59.7,55.5,51.6,87,63,37,30.09,29.96,11,3,11,0.00
2013-6-15,85.5,73.9,63.3,67.3,62.0,58.1,87,68,43,30.06,29.88,18,4,21,0.02
2013-6-16,81.9,74.8,68.4,70.0,66.9,63.1,88,77,65,29.96,29.88,24,4,25,0.16
2013-6-17,89.6,78.2,69.1,72.1,65.1,55.0,95,68,33,29.93,29.84,13,2,18,0.00
2013-6-18,86.4,75.1,65.1,64.2,61.9,56.1,90,66,40,29.98,29.85,18,4,20,0.00
2013-6-19,84.9,73.2,61.5,62.6,59.9,56.5,88,65,43,30.08,29.97,10,2,10,0.00
2013-6-20,88.3,78.2,65.1,66.2,62.6,59.2,82,60,43,30.14,30.06,14,3,16,0.00
2013-6-21,90.3,77.8,70.0,72.1,66.1,62.1,91,69,48,30.12,29.95,31,4,31,0.62
2013-6-22,85.5,74.8,70.0,73.8,67.9,64.9,89,79,65,30.12,29.96,22,4,27,0.18
2013-6-23,83.7,76.3,68.4,71.6,67.4,64.4,90,75,56,30.05,29.97,22,5,22,0.00
2013-6-24,88.2,77.0,68.2,74.8,68.8,61.3,88,77,60,30.09,29.89,23,4,24,0.04
2013-6-25,91.6,78.7,68.7,74.3,69.9,64.4,89,75,52,29.97,29.81,24,5,26,0.62
2013-6-26,82.9,75.9,69.3,74.1,69.4,65.8,91,81,66,29.88,29.69,14,5,18,0.13
2013-6-27,90.5,80.7,72.1,74.7,70.2,65.5,95,72,47,29.78,29.68,16,4,19,0.00
2013-6-28,86.2,76.1,67.3,67.6,63.3,56.3,89,67,39,29.72,29.59,30,4,30,0.09
2013-6-29,74.1,68.4,64.8,66.4,64.0,61.9,92,86,74,29.68,29.56,18,3,18,0.06
2013-6-30,75.0,68.2,64.6,64.8,62.3,60.1,95,82,61,29.88,29.68,24,6,24,0.08
2013-7-1,76.6,68.5,64.2,64.4,60.9,56.7,89,77,60,29.96,29.86,20,7,21,0.11
2013-7-2,68.9,64.3,61.9,62.6,60.2,57.6,92,86,79,30.01,29.93,14,5,15,0.02
2013-7-3,75.0,68.3,62.6,66.2,63.2,59.9,95,84,67,30.07,29.98,12,-1,14,0.13
2013-7-4,81.5,70.6,57.6,64.8,60.7,55.8,95,73,47,30.11,30.03,10,1,11,0.01
2013-7-5,84.0,75.5,67.1,67.8,66.0,62.4,91,73,54,30.09,30.00,12,2,14,0.00
2013-7-6,76.5,73.1,68.5,69.6,68.0,65.3,91,84,78,30.05,29.97,10,3,12,0.00
2013-7-7,86.9,77.0,68.0,71.8,68.2,64.6,91,76,56,30.05,29.96,15,4,16,0.00
2013-7-8,88.3,80.1,73.9,74.5,71.3,68.4,84,75,59,30.06,29.96,18,5,24,0.00
2013-7-9,91.8,83.2,77.4,77.7,74.0,71.1,83,74,59,30.00,29.87,15,5,15,0.00
2013-7-10,86.5,78.9,68.9,75.9,71.2,62.1,92,78,58,30.00,29.74,31,6,31,0.39
2013-7-11,80.6,71.6,63.5,62.4,58.7,55.4,86,65,45,30.05,29.95,15,3,16,0.00
2013-7-12,83.7,71.2,55.9,62.8,58.2,52.5,89,66,41,30.12,30.03,9,2,11,0.00
2013-7-13,85.1,74.3,61.0,67.1,62.9,57.7,90,69,49,30.12,30.04,13,2,15,0.00
2013-7-14,90.7,79.8,66.9,72.7,68.7,63.1,88,70,52,30.15,30.08,11,2,11,0.00
2013-7-15,90.3,82.2,72.9,73.9,72.2,69.8,91,73,58,30.23,30.14,11,3,13,0.00
2013-7-16,92.8,83.1,71.2,73.6,71.1,67.6,93,69,46,30.30,30.22,11,2,12,0.00
2013-7-17,93.4,83.9,73.0,75.2,72.4,69.6,90,70,47,30.30,30.15,9,1,11,0.00
2013-7-18,93.9,85.3,75.2,76.1,74.0,71.6,90,70,51,30.17,29.97,13,2,14,0.00
2013-7-19,93.6,85.5,78.1,75.6,73.9,72.3,84,69,54,29.98,29.80,20,6,23,0.00
2013-7-20,84.6,77.9,70.5,75.6,71.5,66.7,91,81,73,29.90,29.78,15,4,15,2.28
2013-7-21,81.5,75.5,69.8,71.8,69.8,67.1,94,83,72,29.94,29.83,8,2,9,0.00
2013-7-22,84.7,76.1,68.7,71.8,69.4,66.9,95,81,60,29.84,29.75,10,1,13,1.02
2013-7-23,84.9,75.8,63.1,71.2,66.4,57.6,92,74,51,29.91,29.71,22,5,22,1.02
2013-7-24,74.7,65.3,55.6,57.6,53.6,51.1,85,67,47,30.02,29.90,16,4,18,0.00
2013-7-25,79.3,68.1,54.9,62.1,56.2,52.0,91,68,45,30.10,30.01,7,1,8,0.00
2013-7-26,79.3,70.4,63.0,65.8,61.9,58.1,87,75,54,30.06,29.88,13,3,16,0.03
2013-7-27,74.5,67.2,57.4,65.7,56.3,48.2,89,69,47,29.94,29.86,20,4,23,0.00
2013-7-28,73.8,65.5,54.9,57.4,52.1,48.4,84,63,45,30.03,29.92,19,4,20,0.00
2013-7-29,78.8,68.4,56.8,59.7,55.5,50.7,91,66,40,30.15,30.03,11,1,11,0.00
2013-7-30,71.6,68.6,62.2,67.1,62.7,57.7,90,82,72,30.16,30.04,10,-2,10,0.16
2013-7-31,78.4,71.8,68.0,70.7,67.4,64.9,91,86,76,30.04,29.92,14,0,15,0.00
2013-8-1,81.3,70.6,64.2,65.8,60.8,54.5,93,74,41,30.00,29.94,15,-26,19,0.00
2013-8-2,83.1,73.6,64.2,70.7,65.0,57.6,88,75,62,29.96,29.88,19,-8,24,0.02
2013-8-3,83.1,73.9,64.4,69.4,64.0,56.1,94,73,46,30.08,29.91,13,3,15,0.94
2013-8-4,79.2,69.9,58.6,62.2,57.1,53.8,87,66,44,30.16,30.08,9,1,9,0.00
2013-8-5,81.0,72.3,60.4,65.1,61.3,57.0,92,70,47,30.09,29.87,14,3,15,0.00
2013-8-6,84.2,75.4,70.3,72.3,68.1,64.0,86,78,64,29.91,29.83,9,-1,10,0.00
2013-8-7,84.4,76.3,72.3,73.9,71.1,68.5,89,84,70,29.88,29.81,12,-10,14,0.00
2013-8-8,77.7,73.1,68.5,72.5,69.4,63.9,95,89,82,29.93,29.85,10,-9,12,0.00
2013-8-9,83.5,73.3,62.8,66.0,62.3,56.8,90,70,42,30.03,29.91,10,2,10,0.00
2013-8-10,85.5,76.4,68.9,68.4,64.8,59.7,87,69,45,30.08,30.01,13,2,13,0.00
2013-8-11,83.8,73.2,61.3,66.4,62.4,57.7,89,71,46,30.10,30.03,10,1,11,0.00
2013-8-12,85.1,75.7,66.4,71.4,66.4,62.8,89,74,55,30.05,29.84,11,-8,11,0.00
2013-8-13,74.5,67.7,57.2,67.6,58.4,49.6,94,74,48,30.11,29.85,20,-2,20,0.00
2013-8-14,71.8,61.7,52.0,54.0,50.8,48.0,87,69,49,30.21,30.11,12,2,15,0.00
2013-8-15,75.7,63.4,51.6,57.7,53.2,49.1,92,72,45,30.17,30.09,11,-20,11,0.00
2013-8-16,78.3,69.1,61.5,60.3,56.7,52.9,82,66,44,30.15,30.09,11,1,12,0.00
2013-8-17,80.6,69.4,60.1,61.0,57.7,54.0,86,68,43,30.19,30.11,11,2,13,0.00
2013-8-18,83.8,72.2,60.1,66.4,62.0,56.8,89,72,51,30.16,30.06,9,1,10,0.00
2013-8-19,86.0,73.9,62.8,66.9,63.9,59.7,91,73,49,30.12,30.02,9,-23,9,0.00
2013-8-20,87.3,74.9,64.2,69.4,65.7,61.5,92,75,49,30.12,30.03,11,-14,11,0.00
2013-8-21,88.3,78.4,67.5,70.9,67.6,64.0,90,71,48,30.10,29.99,13,-5,13,0.00
2013-8-22,83.7,75.5,70.2,70.2,67.2,65.5,89,76,60,30.09,29.98,21,0,21,0.00
2013-8-23,83.1,73.0,64.9,68.9,66.2,63.0,95,80,56,30.12,30.04,10,2,12,0.00
2013-8-24,86.7,74.3,61.7,64.6,61.6,58.8,92,67,43,30.23,30.11,9,2,10,0.00
2013-8-25,88.0,75.3,59.5,66.2,61.6,56.3,90,65,41,30.27,30.16,12,2,13,0.00
2013-8-26,90.7,79.6,69.4,73.6,68.5,61.2,84,70,50,30.19,30.02,12,3,14,0.00
2013-8-27,91.8,80.0,73.8,74.3,70.6,68.9,87,74,54,30.03,29.90,14,-12,15,0.00
2013-8-28,94.3,80.8,72.5,76.6,71.5,67.3,90,74,53,29.97,29.87,14,-9,14,0.00
2013-8-29,88.7,77.6,71.8,73.8,70.2,67.3,94,80,52,30.04,29.94,9,-2,10,0.00
2013-8-30,93.9,80.6,67.1,76.6,71.0,64.9,93,74,53,29.95,29.76,28,-4,32,0.34
2013-8-31,93.9,77.6,68.0,78.1,69.5,64.9,91,77,58,29.81,29.66,18,2,20,0.23
2013-9-1,80.2,74.3,70.5,71.4,69.5,67.5,91,85,73,29.78,29.72,10,2,10,0.00
2013-9-2,84.4,74.6,64.4,69.3,64.5,58.6,92,73,45,29.93,29.75,18,4,19,0.00
2013-9-3,77.4,66.7,56.5,60.3,56.8,54.5,94,73,47,30.07,29.93,10,1,12,0.00
2013-9-4,84.0,70.6,56.3,63.0,58.8,53.4,93,69,41,30.14,30.04,9,1,11,0.00
2013-9-5,87.4,73.9,62.1,67.5,62.2,58.1,89,69,45,30.17,30.10,9,1,9,0.00
2013-9-6,86.7,74.2,61.5,67.5,62.5,55.9,85,68,49,30.18,30.01,8,1,9,0.00
2013-9-7,88.3,77.8,68.5,69.4,65.8,62.2,87,68,43,30.03,29.89,15,3,20,0.00
2013-9-8,86.2,77.7,69.6,72.0,69.0,66.2,91,75,57,29.95,29.88,8,1,9,0.00
2013-9-9,94.6,82.2,71.6,75.4,71.4,68.0,89,72,47,29.93,29.84,20,5,20,0.00
2013-9-10,97.0,84.6,75.7,72.9,71.0,65.8,85,66,37,30.04,29.91,16,1,16,0.00
2013-9-11,95.4,83.6,74.7,71.6,67.3,61.0,86,61,33,30.07,29.95,20,4,20,0.00
2013-9-12,86.2,73.6,62.1,69.4,62.4,49.8,90,71,35,30.01,29.87,23,-13,27,0.02
2013-9-13,69.3,61.3,51.3,57.0,49.9,44.2,87,68,44,30.11,30.00,21,4,22,0.00
2013-9-14,73.8,59.5,44.8,47.8,44.0,39.0,92,61,30,30.19,30.05,9,1,10,0.00
2013-9-15,78.1,64.3,49.8,61.0,52.2,45.7,93,67,37,30.08,29.96,21,3,21,0.03
2013-9-16,67.8,61.1,53.1,59.2,54.4,49.6,93,80,60,30.29,30.07,16,4,16,0.00
2013-9-17,76.3,62.8,49.6,57.2,52.4,47.1,92,72,45,30.30,30.10,12,2,12,0.01
2013-9-18,83.7,71.6,62.1,67.6,62.3,56.7,84,73,55,30.10,29.95,12,-8,13,0.00
2013-9-19,88.3,77.8,69.8,73.2,70.1,67.1,92,78,57,30.00,29.83,20,6,23,0.62
2013-9-20,78.4,71.8,61.2,71.1,66.5,54.1,92,84,74,29.86,29.77,20,4,22,0.57
2013-9-21,71.4,61.7,54.0,54.3,50.1,46.2,90,68,43,29.91,29.79,18,5,23,0.00
2013-9-22,72.7,59.5,48.0,51.6,48.9,45.3,93,70,43,30.02,29.91,9,1,11,0.01
2013-9-23,75.2,61.0,46.8,51.8,47.9,44.2,91,65,38,30.08,29.99,10,-2,10,0.00
2013-9-24,79.5,63.4,48.6,59.9,52.7,45.3,90,70,48,30.02,29.86,11,2,11,0.00
2013-9-25,81.0,67.0,55.8,61.0,55.5,50.4,83,68,47,29.91,29.84,11,1,11,0.00
2013-9-26,81.5,66.2,53.4,56.1,52.1,48.9,89,64,34,30.04,29.90,9,1,10,0.00
2013-9-27,82.8,66.9,53.1,58.8,53.6,50.2,90,66,36,30.14,30.03,11,1,12,0.00
2013-9-28,84.6,68.9,52.7,62.4,56.2,50.7,95,67,40,30.10,29.95,24,4,24,0.00
2013-9-29,74.7,65.5,56.3,61.3,55.8,50.7,94,73,44,30.01,29.93,14,3,20,0.21
2013-9-30,77.4,63.0,51.1,61.2,56.4,48.2,96,81,50,30.00,29.89,12,2,15,0.01
2013-10-1,82.8,69.8,61.3,66.4,63.3,59.5,95,81,54,30.02,29.93,14,3,14,0.00
2013-10-2,74.1,68.8,65.1,69.3,66.5,63.1,97,93,84,30.07,29.97,8,1,9,0.00
2013-10-3,85.1,73.5,65.7,68.9,66.1,62.6,95,79,53,29.99,29.86,16,4,18,0.36
2013-10-4,84.9,73.9,65.3,71.2,67.3,62.6,93,81,61,29.98,29.91,13,3,15,0.00
2013-10-5,81.3,72.3,67.3,71.8,67.8,64.6,92,86,68,29.96,29.77,16,5,20,0.26
2013-10-6,69.1,59.3,51.4,65.7,49.2,38.7,93,71,42,29.82,29.70,23,4,25,0.15
2013-10-7,68.4,54.6,46.8,50.0,46.5,43.5,93,77,43,30.12,29.80,16,-1,16,0.07
2013-10-8,76.5,58.7,45.1,54.1,48.3,43.3,95,73,37,30.22,30.12,10,1,10,0.01
2013-10-9,75.2,58.6,45.0,51.3,47.3,42.4,92,70,36,30.22,30.12,10,1,10,0.00
2013-10-10,78.4,61.9,47.8,58.5,52.8,45.9,95,75,46,30.17,30.03,6,0,8,0.01
2013-10-11,78.4,63.7,50.2,58.1,53.6,48.7,96,73,44,30.07,29.96,10,1,12,0.00
2013-10-12,77.2,65.2,52.5,63.0,56.6,48.4,92,75,56,30.15,29.98,14,2,18,0.00
2013-10-13,70.3,58.4,48.0,47.8,39.9,31.6,81,54,25,30.36,30.15,14,0,19,0.00
2013-10-14,70.3,54.1,39.6,46.6,42.0,37.0,92,67,30,30.36,30.13,10,1,12,0.00
2013-10-15,65.3,59.8,50.7,62.4,55.3,44.2,94,85,75,30.13,29.85,20,4,23,0.05
2013-10-16,59.9,51.5,45.1,54.5,44.8,42.1,90,78,66,29.98,29.88,14,3,19,0.00
2013-10-17,59.0,48.4,42.8,46.8,42.6,38.8,93,81,49,29.97,29.88,13,2,16,0.05
2013-10-18,59.4,49.8,44.4,46.8,42.5,40.3,87,76,61,29.99,29.91,20,3,20,0.00
2013-10-19,55.9,47.4,41.5,42.4,38.2,32.5,93,73,42,29.96,29.87,19,3,22,0.22
2013-10-20,67.8,54.0,41.0,44.2,40.6,36.3,84,62,39,29.95,29.83,29,7,30,0.00
2013-10-21,55.2,48.4,35.8,45.9,38.6,25.9,86,69,51,30.02,29.87,18,4,19,0.00
2013-10-22,49.5,38.5,29.8,39.9,32.8,25.7,93,81,49,30.04,29.85,15,3,21,0.40
2013-10-23,45.9,39.4,34.3,35.6,33.3,31.1,94,79,60,30.08,29.87,14,4,15,0.01
2013-10-24,42.3,38.3,34.7,34.9,30.9,25.3,92,75,55,30.34,30.07,23,4,23,0.10
2013-10-25,52.0,39.7,27.0,29.7,27.2,24.1,90,63,39,30.48,30.20,15,3,19,0.00
2013-10-26,58.8,45.7,36.0,39.9,31.9,26.4,85,59,40,30.20,29.91,25,6,26,0.00
2013-10-27,58.3,42.2,28.6,35.1,30.7,26.6,94,68,33,30.12,30.03,12,1,14,0.00
2013-10-28,64.0,45.8,29.8,38.1,32.7,27.9,94,65,30,30.30,30.08,8,0,10,0.01
2013-10-29,57.4,47.8,37.8,48.6,41.8,34.3,93,80,65,30.32,30.14,9,-3,10,0.02
2013-10-30,66.9,59.1,50.5,64.2,57.0,48.6,96,93,88,30.14,29.85,24,3,26,0.04
2013-10-31,66.4,60.8,49.8,62.6,58.7,46.8,95,93,88,29.86,29.28,27,8,33,1.94
2013-11-1,54.7,49.1,45.0,46.8,43.9,41.0,93,83,66,29.78,29.48,21,1,24,0.00
2013-11-2,50.4,44.6,37.0,43.0,39.5,34.9,93,83,69,30.15,29.77,19,4,19,0.00
2013-11-3,55.9,42.8,30.0,41.7,34.4,28.8,96,75,42,30.32,30.14,11,1,11,0.01
2013-11-4,59.2,50.6,42.4,43.7,40.1,34.7,77,68,50,30.29,30.18,19,5,22,0.00
2013-11-5,60.1,54.7,50.7,49.3,46.6,43.5,91,75,61,30.32,30.04,20,4,22,0.03
2013-11-6,60.4,50.3,38.8,53.4,46.1,32.5,92,86,62,30.17,29.88,24,8,26,0.28
2013-11-7,48.6,38.8,30.7,36.1,30.8,27.0,92,74,46,30.32,30.17,22,4,24,0.00
2013-11-8,52.5,41.9,29.8,33.3,30.1,27.3,92,66,42,30.38,30.09,19,3,23,0.01
2013-11-9,63.7,52.5,45.1,43.0,37.6,30.6,68,57,44,30.16,29.98,24,7,27,0.00
2013-11-10,49.8,41.9,34.2,37.2,31.8,29.8,86,68,49,30.38,30.16,19,4,20,0.00
2013-11-11,52.2,41.5,29.5,41.9,34.5,25.0,94,77,59,30.44,30.10,23,7,28,0.06
2013-11-12,33.4,27.5,23.2,26.1,21.3,18.5,88,77,65,30.70,30.44,24,2,25,0.01
2013-11-13,39.7,29.8,18.9,23.2,20.0,16.2,90,69,46,30.67,30.31,20,6,25,0.00
2013-11-14,52.5,41.7,31.5,25.9,23.9,20.5,69,51,32,30.32,30.06,24,8,27,0.00
2013-11-15,54.3,47.3,41.7,41.2,31.4,25.2,85,55,43,30.08,29.99,19,6,21,0.00
2013-11-16,62.8,55.5,45.7,59.5,51.0,41.2,93,85,71,30.00,29.66,26,9,29,0.10
2013-11-17,68.7,64.1,61.2,63.9,60.8,58.3,92,89,83,29.68,29.27,32,11,34,0.20
2013-11-19,33.3,31.8,30.6,27.0,26.5,26.1,83,80,77,30.37,30.36,6,3,9,0.00